Weather History for La Junta, CO

Change the Weather History Date:

Tuesday, October 25, 2011

  Actual Average Record
Temperature  
Mean Temperature 64 °F 51 °F  
Max Temperature 79 °F 66 °F 88 °F (1959)
Min Temperature 48 °F 35 °F 18 °F (1975)
Degree Days  
Heating Degree Days 1 14  
Month to date heating degree days 184 254  
Since 1 July heating degree days 202 327  
Cooling Degree Days 0 0  
Month to date cooling degree days 31 7  
Year to date cooling degree days 1637 1223  
Growing Degree Days 14 (Base 50)    
Moisture  
Dew Point 26 °F    
Average Humidity 30    
Maximum Humidity 48    
Minimum Humidity 11    
Precipitation  
Precipitation 0.00 in 0.03 in 0.09 in (1984)
Month to date precipitation 0.04 0.76  
Year to date precipitation 6.47 10.67  
Snow  
Snow 0.00 in - - ()
Month to date snowfall 0.0  
Snow Depth 0.00 in    
Sea Level Pressure  
Sea Level Pressure 29.83 in    
Wind  
Wind Speed 17 mph (NNE)    
Max Wind Speed 30 mph    
Max Gust Speed 36 mph    
Visibility 10 miles    
Events      
T = Trace of Precipitation, MM = Missing Value Source: NWS Daily Summary

Daily Weather History Graph

Daily Weather History Graph

Search for Another Location

Airport:

Trip Planner

Search our weather history database for the weather conditions in past years. The results will help you decide how hot, cold, wet, or windy it might be!

Date:

Astronomy

Oct. 25, 2011 Rise Set
Actual Time 7:12 AM MDT 6:03 PM MDT
Civil Twilight 6:45 AM MDT 6:30 PM MDT
Nautical Twilight 6:14 AM MDT 7:01 PM MDT
Astronomical Twilight 5:44 AM MDT 7:31 PM MDT
Moon 5:48 AM MDT (10/25) 5:06 PM MDT (10/25)
Length of Visible Light 11h 44m
Length of Day
10h 50m
Waning Crescent, 2% of the Moon is Illuminated
Oct 25
Waning Crescent
Oct 26
New
Nov 2
First Quarter
Nov 10
Full
Nov 18
Last Quarter

Hourly Weather History & Observations

Time (MDT) Temp. Dew Point Humidity Pressure Visibility Wind Dir Wind Speed Gust Speed Precip Events Conditions
12:53 AM 62.1 °F 24.1 °F 23% 29.70 in 10.0 mi West 12.7 mph - N/A   Clear
2:53 AM 55.9 °F 21.9 °F 27% 29.72 in 10.0 mi West 12.7 mph - N/A   Clear
3:53 AM 57.9 °F 21.0 °F 24% 29.72 in 10.0 mi WSW 10.4 mph - N/A   Clear
4:53 AM 57.0 °F 21.0 °F 25% 29.74 in 10.0 mi SW 11.5 mph - N/A   Clear
5:53 AM 57.9 °F 19.0 °F 22% 29.77 in 10.0 mi West 13.8 mph - N/A   Clear
6:53 AM 57.0 °F 19.0 °F 23% 29.80 in 10.0 mi West 13.8 mph - N/A   Clear
7:53 AM 57.9 °F 19.0 °F 22% 29.82 in 10.0 mi WSW 12.7 mph - N/A   Clear
8:53 AM 64.0 °F 19.9 °F 18% 29.83 in 10.0 mi WSW 15.0 mph - N/A   Clear
9:53 AM 72.0 °F 21.0 °F 15% 29.82 in 10.0 mi West 13.8 mph - N/A   Clear
10:53 AM 77.0 °F 19.9 °F 12% 29.80 in 10.0 mi WNW 24.2 mph 28.8 mph N/A   Clear
11:45 AM 73.4 °F 21.2 °F 14% 29.98 in 10.0 mi NE 17.3 mph 24.2 mph N/A   Clear
11:53 AM 72.0 °F 23.0 °F 16% 29.82 in 10.0 mi ENE 19.6 mph - N/A   Clear
12:53 PM 73.9 °F 28.9 °F 19% 29.80 in 10.0 mi ENE 20.7 mph - N/A   Clear
1:53 PM 73.9 °F 28.0 °F 18% 29.78 in 10.0 mi ENE 19.6 mph - N/A   Clear
2:53 PM 75.0 °F 28.0 °F 18% 29.76 in 10.0 mi East 18.4 mph 24.2 mph N/A   Clear
3:53 PM 71.1 °F 30.0 °F 22% 29.77 in 10.0 mi ESE 18.4 mph - N/A   Partly Cloudy
4:53 PM 69.1 °F 30.0 °F 23% 29.79 in 10.0 mi ENE 19.6 mph - N/A   Overcast
5:53 PM 64.9 °F 33.1 °F 31% 29.83 in 10.0 mi East 24.2 mph 28.8 mph N/A   Overcast
6:53 PM 59.0 °F 32.0 °F 36% 29.87 in 10.0 mi ENE 27.6 mph 33.4 mph N/A   Overcast
7:53 PM 55.9 °F 32.0 °F 40% 29.88 in 10.0 mi NE 24.2 mph 35.7 mph N/A   Scattered Clouds
8:53 PM 55.0 °F 33.1 °F 43% 29.92 in 10.0 mi NE 20.7 mph 29.9 mph N/A   Overcast
9:53 PM 52.0 °F 32.0 °F 47% 29.96 in 10.0 mi NNE 16.1 mph - N/A   Partly Cloudy
10:53 PM 50.0 °F 30.9 °F 48% 29.96 in 10.0 mi NNE 17.3 mph - N/A   Clear
11:53 PM 48.0 °F 28.9 °F 48% 30.00 in 10.0 mi NNE 13.8 mph - N/A   Mostly Cloudy